Rochelle, IL

6:27 AM CDT on August 30, 2016 (GMT -0500)
Rochelle

Weather History for KRPJ - November, 2012

Change the Weather History Date:

Tuesday, November 6, 2012

  Actual Average (KRFD) Record (KRFD)
Temperature  
Mean Temperature 30 °F 44 °F  
Max Temperature 39 °F 53 °F 74 °F (1924)
Min Temperature 21 °F 35 °F 14 °F (1930)
Degree Days  
Heating Degree Days 35 21  
Month to date heating degree days 120  
Since 1 July heating degree days 673  
Cooling Degree Days 0 0  
Month to date cooling degree days 0  
Year to date cooling degree days 820  
Moisture  
Dew Point 32 °F    
Average Humidity 95    
Maximum Humidity 99    
Minimum Humidity 81    
Precipitation  
Precipitation 0.09 in 0.09 in 1.75 in (1943)
Month to date precipitation 0.55  
Year to date precipitation 32.23  
Snow  
Snow 0.00 in 0.00 in 6.40 in (1951)
Month to date snowfall 0.0  
Since 1 July snowfall 0.1  
Since 1 September snowfall 0.1  
Snow Depth -    
Sea Level Pressure  
Sea Level Pressure 29.95 in    
Wind  
Wind Speed 5 mph (SSE)    
Max Wind Speed 13 mph    
Max Gust Speed -    
Visibility 4 miles    
Events Rain    
T = Trace of Precipitation, MM = Missing Value Source: NWS Daily Summary

Daily Weather History Graph

Daily Weather History Graph

Search for Another Location

Airport or City:

Trip Planner

Search our weather history database for the weather conditions in past years. The results will help you decide how hot, cold, wet, or windy it might be!

Date:

Astronomy

Nov. 06, 2012 Rise Set
Actual Time 6:35 AM CST 4:43 PM CST
Civil Twilight 6:06 AM CST 5:13 PM CST
Nautical Twilight 5:32 AM CST 5:46 PM CST
Astronomical Twilight 5:00 AM CST 6:19 PM CST
Moon 11:24 PM CST (11/6) 12:26 PM CST (11/6)
Length of Visible Light 11h 07m
Length of Day
10h 08m
Waning Gibbous, 53% of the Moon is Illuminated
Nov 6
Waning Gibbous
Nov 6
Last Quarter
Nov 13
New
Nov 20
First Quarter
Nov 28
Full

Hourly Weather History & Observations

Time (CST) Temp. Windchill Dew Point Humidity Pressure Visibility Wind Dir Wind Speed Gust Speed Precip Events Conditions
12:15 AM 25.0 °F 18.1 °F 23.7 °F 95% 30.10 in 7.0 mi SE 5.8 mph - N/A   Clear
12:35 AM 24.8 °F - 23.7 °F 96% 30.10 in 7.0 mi Calm Calm - N/A   Clear
12:55 AM 23.7 °F - 22.6 °F 96% 30.10 in 7.0 mi Calm Calm - N/A   Clear
1:15 AM 25.7 °F - 24.4 °F 95% 30.10 in 7.0 mi Calm Calm - N/A   Clear
1:35 AM 25.3 °F - 24.3 °F 96% 30.10 in 7.0 mi Calm Calm - N/A   Clear
1:55 AM 25.3 °F - 24.6 °F 97% 30.09 in 7.0 mi Calm Calm - N/A   Clear
2:15 AM 24.1 °F - 23.2 °F 96% 30.09 in 7.0 mi Calm Calm - N/A   Clear
2:35 AM 26.2 °F - 25.5 °F 97% 30.08 in 7.0 mi Calm Calm - N/A   Clear
2:55 AM 25.3 °F - 24.3 °F 96% 30.08 in 7.0 mi Calm Calm - N/A   Clear
3:15 AM 23.2 °F - 22.3 °F 96% 30.07 in 5.0 mi Calm Calm - N/A   Clear
3:35 AM 22.8 °F 18.2 °F 21.7 °F 96% 30.06 in 5.0 mi ESE 3.5 mph - N/A   Clear
3:55 AM 21.6 °F 16.8 °F 20.5 °F 96% 30.05 in 7.0 mi SE 3.5 mph - N/A   Clear
4:15 AM 21.2 °F - 20.3 °F 96% 30.05 in 7.0 mi Calm Calm - N/A   Clear
4:35 AM 21.4 °F - 20.5 °F 96% 30.05 in 5.0 mi Calm Calm - N/A   Clear
4:55 AM 22.8 °F 18.2 °F 21.9 °F 96% 30.04 in 4.0 mi ESE 3.5 mph - N/A   Clear
5:15 AM 23.5 °F 19.1 °F 22.8 °F 97% 30.04 in 5.0 mi South 3.5 mph - N/A   Scattered Clouds
5:35 AM 26.8 °F 22.8 °F 26.2 °F 98% 30.02 in 5.0 mi SSE 3.5 mph - N/A   Overcast
5:55 AM 28.4 °F 20.4 °F 27.9 °F 98% 30.00 in 5.0 mi SE 8.1 mph - N/A   Overcast
6:15 AM 31.1 °F 25.4 °F 30.2 °F 96% 30.00 in 7.0 mi SSE 5.8 mph - N/A   Overcast
6:35 AM 32.0 °F 26.4 °F 30.9 °F 96% 30.01 in 7.0 mi SSE 5.8 mph - N/A   Overcast
6:55 AM 32.0 °F 26.4 °F 31.1 °F 96% 30.01 in 5.0 mi SSE 5.8 mph - N/A   Overcast
7:15 AM 32.4 °F 27.9 °F 31.5 °F 96% 30.01 in 5.0 mi SSE 4.6 mph - N/A   Overcast
7:35 AM 32.5 °F 27.1 °F 31.5 °F 96% 30.01 in 5.0 mi South 5.8 mph - N/A   Overcast
7:55 AM 32.9 °F 25.9 °F 31.6 °F 95% 30.01 in 5.0 mi SSE 8.1 mph - N/A   Overcast
8:15 AM 33.6 °F 28.4 °F 32.0 °F 94% 30.00 in 5.0 mi South 5.8 mph - N/A   Overcast
8:35 AM 34.5 °F 27.9 °F 32.0 °F 90% 29.99 in 7.0 mi South 8.1 mph - N/A   Overcast
8:55 AM 35.1 °F 27.9 °F 31.8 °F 88% 29.99 in 7.0 mi SSE 9.2 mph - N/A   Overcast
9:15 AM 35.6 °F 28.0 °F 32.0 °F 87% 29.98 in 7.0 mi SSE 10.4 mph - N/A   Overcast
9:35 AM 35.6 °F 28.6 °F 31.8 °F 86% 29.98 in 7.0 mi SSE 9.2 mph - N/A   Overcast
9:55 AM 35.6 °F 28.0 °F 31.5 °F 85% 29.97 in 7.0 mi SSE 10.4 mph - N/A   Overcast
10:15 AM 35.6 °F 28.0 °F 31.6 °F 85% 29.97 in 7.0 mi South 10.4 mph - N/A   Overcast
10:35 AM 36.7 °F 30.5 °F 32.0 °F 83% - 7.0 mi South 8.1 mph - N/A   Overcast
10:55 AM 37.4 °F 30.8 °F 32.2 °F 81% 29.97 in 7.0 mi SSW 9.2 mph - N/A   Light Drizzle
11:15 AM 36.7 °F 29.4 °F 33.3 °F 87% 29.96 in 5.0 mi SSW 10.4 mph - N/A Rain Light Rain
11:35 AM 36.3 °F 29.5 °F 33.8 °F 91% 29.95 in 5.0 mi South 9.2 mph - N/A Rain Light Rain
11:55 AM 36.3 °F 28.4 °F 34.3 °F 93% 29.94 in 4.0 mi South 11.5 mph - 0.01 in Rain Rain
12:15 PM 35.8 °F 28.3 °F 34.2 °F 94% 29.93 in 4.0 mi South 10.4 mph - 0.01 in Rain Light Rain
12:35 PM 36.7 °F 29.4 °F 35.2 °F 95% 29.92 in 4.0 mi South 10.4 mph - 0.02 in Rain Light Rain
12:55 PM 37.4 °F 29.8 °F 35.8 °F 94% 29.91 in 3.0 mi South 11.5 mph - 0.02 in Rain Rain
1:15 PM 37.6 °F 29.6 °F 36.3 °F 95% 29.90 in 3.0 mi South 12.7 mph - N/A   Drizzle
1:35 PM 38.3 °F 31.4 °F 36.5 °F 93% 29.89 in 3.0 mi South 10.4 mph - N/A   Drizzle
1:55 PM 37.9 °F 30.9 °F 36.3 °F 94% 29.88 in 3.0 mi South 10.4 mph - N/A   Drizzle
2:15 PM 38.3 °F 30.9 °F 36.7 °F 94% 29.88 in 2.5 mi South 11.5 mph - 0.01 in Rain Light Rain
2:35 PM 37.9 °F 31.5 °F 36.7 °F 95% 29.88 in 2.5 mi SSE 9.2 mph - 0.01 in Rain Rain
2:55 PM 38.3 °F 31.4 °F 37.0 °F 95% 29.88 in 2.5 mi South 10.4 mph - 0.01 in   Drizzle
3:15 PM 38.3 °F 31.4 °F 37.0 °F 95% 29.87 in 2.5 mi SSE 10.4 mph - N/A Rain Rain
3:35 PM 38.3 °F 32.5 °F 37.4 °F 97% 29.87 in 2.5 mi SSE 8.1 mph - 0.01 in Rain Light Rain
4:15 PM 38.3 °F 31.4 °F 37.4 °F 97% 29.88 in 2.0 mi SSE 10.4 mph - N/A Rain Light Rain
4:35 PM 38.3 °F 31.9 °F 37.4 °F 97% 29.87 in 2.5 mi SSE 9.2 mph - N/A Rain Rain
4:55 PM 38.3 °F 32.5 °F 37.4 °F 97% 29.88 in 2.5 mi SSE 8.1 mph - 0.01 in Rain Rain
5:15 PM 38.3 °F 31.9 °F 37.6 °F 97% 29.88 in 2.5 mi SSE 9.2 mph - N/A Rain Rain
5:35 PM 38.3 °F 31.9 °F 37.6 °F 97% 29.88 in 2.5 mi SSE 9.2 mph - N/A Rain Light Rain
5:55 PM 38.3 °F 31.9 °F 37.6 °F 97% 29.88 in 2.5 mi SSE 9.2 mph - 0.01 in   Drizzle
6:15 PM 38.3 °F 31.9 °F 37.6 °F 97% 29.88 in 2.5 mi SSE 9.2 mph - 0.01 in Rain Light Rain
6:35 PM 38.3 °F 31.9 °F 37.8 °F 98% 29.87 in 2.5 mi SSE 9.2 mph - 0.01 in   Light Drizzle
6:55 PM 38.5 °F 33.4 °F 37.9 °F 98% 29.87 in 2.0 mi SSE 6.9 mph - 0.01 in   Light Drizzle
7:15 PM 38.5 °F 34.1 °F 37.9 °F 98% 29.87 in 1.8 mi SSE 5.8 mph - N/A   Overcast
7:35 PM 38.5 °F 33.4 °F 38.3 °F 99% 29.87 in 1.2 mi SSE 6.9 mph - N/A   Light Drizzle
7:55 PM 38.7 °F 34.3 °F 38.3 °F 99% 29.87 in 1.5 mi SSE 5.8 mph - 0.01 in Rain Light Rain
8:15 PM 38.8 °F 34.6 °F 38.5 °F 99% 29.87 in 2.0 mi South 5.8 mph - N/A   Overcast
8:35 PM 38.8 °F - 38.5 °F 99% 29.88 in 1.8 mi Calm Calm - N/A   Overcast
8:55 PM 39.0 °F 36.8 °F 38.5 °F 98% 29.87 in 1.8 mi South 3.5 mph - N/A   Overcast
9:15 PM 38.8 °F - 38.5 °F 99% 29.87 in 1.8 mi Calm Calm - N/A   Overcast
9:35 PM 38.8 °F - 38.5 °F 99% 29.87 in 1.8 mi Calm Calm - N/A   Overcast
9:55 PM 38.7 °F - 38.3 °F 99% 29.87 in 1.5 mi Calm Calm - N/A   Overcast
10:15 PM 38.7 °F - 38.5 °F 99% 29.87 in 1.8 mi Calm Calm - N/A   Overcast
10:35 PM 38.7 °F - 38.3 °F 99% 29.86 in 1.5 mi Calm Calm - N/A   Overcast
10:55 PM 38.5 °F - 38.3 °F 99% 29.87 in 1.5 mi Calm Calm - N/A   Overcast
11:15 PM 38.3 °F - 37.9 °F 99% 29.87 in 1.2 mi Calm Calm - N/A   Overcast
11:35 PM 37.9 °F - 37.8 °F 99% 29.87 in 1.0 mi Calm Calm - N/A   Overcast
11:55 PM 37.8 °F - 37.6 °F 99% 29.87 in 0.8 mi Calm Calm - N/A   Overcast